Location: Asheville, NC
(35.6000°N, 82.5500°W)
Time: 19:38:41
(UTC-04:00)

Vanguard 1 - Pass Details

Date: 15 March 2018
Orbit: 650 x 3833 km, 34.3° (Epoch: 23 June)

Event Time Altitude Azimuth Distance (km) Brightness Sun altitude
Rises 06:11:03 0° 187° (S) 6,024 13.9 -19.0°
Reaches altitude 10° 06:16:00 10° 173° (S) 5,507 13.8 -18.0°
Maximum altitude 06:28:32 23° 128° (SE) 5,373 14.3 -15.5°
Drops below altitude 10° 06:43:54 10° 86° (E) 6,932 15.9 -12.4°
Sets 06:51:10 0° 75° (ENE) 7,933 16.7 -10.9°
